Regional Weather Roundup
Issued by NWS

Home | Current Version | Previous Version | Graphics & Text | Print | Product List | Glossary On
Versions: 1 2 3 4 5 6 7 8 9 10 11 12 13 14 15 16 17 18 19 20 21 22 23 24 25 26 27 28 29 30 31 32 33 34 35 36 37 38 39 40 41 42 43 44 45 46 47 48 49 50
000
ASUS45 KTFX 271319
RWRMT
MONTANA REGIONAL WEATHER ROUNDUP
NATIONAL WEATHER SERVICE GREAT FALLS MT
700 AM MDT THU AUG 27 2015

NOTE: "FAIR" INDICATES FEW OR NO CLOUDS BELOW 12000 FEET WITH NO
SIGNIFICANT WEATHER AND/OR OBSTRUCTIONS TO VISIBILITY.

MTZ001>007-043-271400-
WEST OF THE DIVIDE

CITY           SKY/WX    TMP DP  RH WIND       PRES   REMARKS
KALISPELL      CLOUDY    51  44  77 N3        30.02R
MISSOULA       CLOUDY    55  39  54 CALM      30.07R HAZE
BUTTE          CLOUDY    56  43  61 E5        30.21R
MULLAN PASS    PTCLDY    61  34  36 NW6       30.22R HAZE
DEER LODGE       N/A     57  41  54 CALM      30.17S
EUREKA           N/A     46  39  76 CALM      30.05R
HAMILTON         N/A     55  45  67 SE3       30.08R
LIBBY            N/A     48  41  76 CALM      30.05R
PLAINS           N/A     50  40  68 CALM      30.04R
RONAN            N/A     53  45  74 CALM      30.07S
THOMPSON FALLS   N/A     50  40  68 CALM      30.08R
$$

MTZ008-052>055-271400-
SOUTHWEST MONTANA

CITY           SKY/WX    TMP DP  RH WIND       PRES   REMARKS
BOZEMAN        MOCLDY    56  47  71 SE5       30.14R
DILLON         CLOUDY    59  42  53 S9        30.18S
W YELLOWSTONE  CLEAR     37  34  87 CALM      30.34R
THREE FORKS      N/A     65  50  58 SW6       30.11R
TWIN BRIDGES     N/A     58  45  62 E5        30.15R
$$

MTZ009-010-012-014-046-048-049-054-271400-
EAST SLOPES AND CENTRAL MONTANA

CITY           SKY/WX    TMP DP  RH WIND       PRES   REMARKS
CUT BANK       PTCLDY    51  45  79 NW7       30.03R HAZE
GREAT FALLS    MOCLDY    59  40  49 SW5       30.03R
MALMSTROM AFB  MOCLDY    61  42  49 SW3       30.03S
HELENA         MOCLDY    61  41  47 VRB3      30.10R
CONRAD           N/A     50  46  85 CALM      30.04S
$$

MTZ011-013-016-021-045-047-050-051-271400-
NORTH CENTRAL MONTANA

CITY           SKY/WX    TMP DP  RH WIND       PRES   REMARKS
HAVRE          PTCLDY    51  46  83 SW5       29.99R HAZE
LEWISTOWN      PTCLDY    56  45  66 SE7       30.06S
N BAR RANCH      N/A     55  43  62 W6        30.10S HAZE
CHINOOK          N/A     54  48  82 W3        29.98R
FORT BENTON      N/A     59  45  58 CALM      30.01S
$$

MTZ017>020-022>027-061-062-271400-
NORTHEAST MONTANA

CITY           SKY/WX    TMP DP  RH WIND       PRES   REMARKS
GLASGOW        PTCLDY    58  52  80 E8        29.97S
JORDAN           N/A     57  48  72 CALM      29.99S
SIDNEY         MOCLDY    61  55  82 NW3       29.97F
WOLF POINT     PTCLDY    54  50  86 CALM      29.97F
MALTA            N/A     52  46  79 CALM      29.95R
PLENTYWOOD       N/A     57  55  94 NE5       29.99F
POPLAR           N/A     55  54  94 N5        29.97S
SCOBEY           N/A     47  43  86 CALM      29.99S
$$

MTZ028>42-056>058-271400-
SOUTHCENTRAL AND SOUTHEAST MONTANA

CITY           SKY/WX    TMP DP  RH WIND       PRES   REMARKS
BAKER          CLOUDY    63  61  93 E6        30.00S
BILLINGS       MOCLDY    70  50  49 SW17      30.05R
LIVINGSTON     CLEAR     59  43  55 CALM      30.13R
MILES CITY     CLOUDY    65  59  81 N7        29.99R
EKALAKA          N/A     65  59  81 SE5       30.00R
FORSYTH          N/A     66  52  59 W5        29.98S
LAUREL           N/A     68  49  50 SW12      30.05R
ROUNDUP          N/A     58  43  57 W3        29.96R
$$

REGIONAL REPORTS...DAKOTAS

CITY           SKY/WX    TMP DP  RH WIND       PRES   REMARKS
WILLISTON      PTCLDY    58  55  90 N3        29.98S
MINOT          PTCLDY    55  52  89 N3        29.98S FOG
DICKINSON      MOCLDY    61  59  93 E3        29.98F FOG
BEACH            N/A     57  57 100 SE6       30.01S FOG
CROSBY         FOG       50  50 100 CALM      30.01R VSB 1/2
BISMARCK       MOCLDY    61  59  93 CALM      29.96F
GRAND FORKS    MOSUNNY   54  51  90 SE6       29.99F
FARGO          MOSUNNY   61  55  81 SE7       29.99F
BUFFALO SD       N/A     63  60  90 SE5       29.95R
RAPID CITY     CLOUDY    64  60  87 CALM      30.04R
$$

REGIONAL REPORTS...WYOMING/IDAHO/WASHINGTON

CITY           SKY/WX    TMP DP  RH WIND       PRES   REMARKS
GILLETTE       CLOUDY    68  51  54 W18       30.11R
SHERIDAN       CLOUDY    66  52  60 SE7       30.10F
BUFFALO WY     LGT RAIN  63  54  72 NW12      30.19R
CODY           MOCLDY    54  46  76 S6        30.19R
YELLOWSTONE LA   N/A     38  36  92 NW3       30.42R
IDAHO FALLS    PTCLDY    49  47  93 CALM      30.24R
SALMON         MOCLDY    63  45  51 CALM      30.16R
BOISE          CLOUDY    71  47  42 SE9       30.09R
SPOKANE        MOCLDY    64  37  36 SE8       30.02R SMOKE
$$

REGIONAL REPORTS...ALBERTA

CITY           SKY/WX    TMP DP  RH WIND       PRES   REMARKS
EDMONTON       CLEAR     50  48  93 N3        29.94F
CALGARY        MOCLDY    55  50  82 SW7       30.00S SMOKE
LETHBRIDGE     MOCLDY    46  46 100 SW7       30.00S SMOKE
MEDICINE HAT   CLOUDY    50  48  93 SW3       29.97R SMOKE
WATERTON GATE    N/A     43  41  93 W1          N/A
CARDSTON         N/A     50  46  87 S3          N/A
MILK RIVER       N/A     50  46  87 NW10        N/A
ONEFOUR          N/A     59  46  63 E10         N/A
$$

REGIONAL REPORTS...SASKATCHEWAN

CITY           SKY/WX    TMP DP  RH WIND       PRES   REMARKS
SWIFT CURRENT  PTCLDY    55  52  88 S10       29.98S
REGINA         PTCLDY    54  52  94 SE8       30.00F
SASKATOON      MOCLDY    52  52 100 N6        29.98R
CYPRESS HILLS    N/A     63  45  51 S3          N/A
VAL MARIE        N/A     48  46  93 E6          N/A
ROCKGLEN         N/A     55  52  88 S8          N/A
ASSINIBOIA       N/A     46  46 100 S1          N/A
$$


USA.gov is the U.S. government's official web portal to all federal, state and local government web resources and services.